www.pogodaiklimat.ru

Погода и климат >> Архив погоды >> Австралия >> Camooweal Township


ПОГОДА в Camooweal Township

  • Прогноз погоды в Camooweal Township
  • Монитор погоды в Camooweal Township
  • Климат города

АРХИВ ПОГОДЫ в Camooweal Township

Время (UTC), дата Ветер
(напр.,м/с)
 
Видим.   Явления Облачность Т
(С)
Тd
(С)
f
(%)
Тe
(С)
Тes
(С)
Комфортность P
(гПа)
Po
(гПа)
Тmin
(С)
Tmax
(С)
R
(мм)
R24
(мм)
S
(см)
02 19.02 СЗ 5 н/о н/о +37.0 +19.4 36 +42 +42 опасность
перегрева
1006.7 981.0 +28.7
03 19.02 СЗ 3 н/о н/о +38.7 +18.0 30 +42 +42 опасность
перегрева
1005.4 979.8
05 19.02 СЗ 4 н/о н/о +40.6 +17.3 26 +43 +43 опасность
перегрева
1002.7 977.1
06 19.02 З 4 н/о н/о +41.4 +16.7 24 +44 +44 опасность
перегрева
1001.8 976.3
08 19.02 СЗ 3 н/о н/о +35.7 +17.4 34 +39 +39 очень
душно
1003.2 977.6
09 19.02 С 3 н/о н/о +36.7 +16.8 31 +39 +39 очень
душно
1002.8 977.2
11 19.02 СВ 3 н/о н/о +33.3 +18.3 41 +38 +38 очень
душно
1003.3 977.7
12 19.02 З 2 н/о н/о +32.3 +17.0 40 +36 +36 очень
душно
1004.1 978.5
14 19.02 С 7 н/о н/о +29.5 +20.1 57 +36 +36 очень
душно
1005.1 979.5 +42.0
15 19.02 СВ 6 н/о н/о +30.0 +20.8 58 +37 +37 очень
душно
1004.3 978.7
17 19.02 С 5 н/о н/о +28.3 +21.6 67 +36 +36 очень
душно
1004.6 979.0
18 19.02 С 4 н/о н/о +27.8 +20.9 66 +35 +35 очень
душно
1004.2 978.6
20 19.02 СЗ 5 н/о н/о +28.6 +20.1 60 +35 +35 очень
душно
1005.4 979.8
21 19.02 СЗ 4 н/о н/о +28.5 +20.2 61 +35 +35 очень
душно
1005.9 980.3
23 19.02 З 5 н/о н/о +32.6 +19.1 45 +38 +38 очень
душно
1007.0 981.3
00 20.02 З 5 н/о н/о +34.2 +19.4 42 +40 +40 очень
душно
1007.0 981.3
02 20.02 З 8 н/о н/о +37.6 +17.6 31 +41 +41 опасность
перегрева
1005.2 979.6 +27.7
03 20.02 З 7 н/о н/о +38.7 +16.9 28 +41 +41 опасность
перегрева
1004.4 978.8
05 20.02 З 6 н/о н/о +39.7 +17.2 27 +42 +42 опасность
перегрева
1001.6 976.1
06 20.02 З 6 н/о н/о +41.1 +16.5 24 +43 +43 опасность
перегрева
1000.5 975.0
08 20.02 ЮЗ 7 н/о н/о +35.6 +17.3 34 +39 +39 очень
душно
1000.6 975.1
09 20.02 Ю 13 н/о н/о +29.5 +20.4 58 +36 +36 очень
душно
1002.7 977.1
11 20.02 С 8 н/о туман местами н/о +26.1 +22.6 81 +34 +34 очень
душно
1002.0 976.5
12 20.02 С 5 н/о н/о +27.3 +22.7 76 +36 +36 очень
душно
1003.7 978.1
14 20.02 СВ 6 н/о туман местами н/о +24.6 +22.1 86 +32 +32 очень
душно
1005.0 979.4 +41.5
15 20.02 В 3 н/о н/о +24.5 +21.6 84 +31 +31 очень
душно
1004.8 979.2
17 20.02 С 4 н/о в посл. час дождь {туман} н/о +24.0 +22.3 90 +31 +31 очень
душно
1002.4 976.9
18 20.02 СЗ 3 н/о н/о +25.9 +22.0 79 +33 +33 очень
душно
1001.9 976.4
20 20.02 З 3 н/о н/о +27.1 +22.7 77 +36 +36 очень
душно
1002.6 977.0
21 20.02 З 3 н/о н/о +26.1 +22.4 80 +34 +34 очень
душно
1003.0 977.4
23 20.02 З 5 н/о н/о +31.1 +20.7 54 +38 +38 очень
душно
1003.5 977.9
00 21.02 З 5 н/о н/о +32.6 +21.5 52 +41 +41 опасность
перегрева
1003.8 978.2
02 21.02 З 5 н/о {туман} н/о +36.5 +18.6 35 +41 +41 опасность
перегрева
1002.3 976.8 +23.7
03 21.02 З 5 н/о н/о +37.9 +18.3 32 +42 +42 опасность
перегрева
1001.0 975.5
05 21.02 З 6 н/о {туман} н/о +40.5 +15.3 23 +42 +42 опасность
перегрева
999.3 973.8
06 21.02 З 5 н/о н/о +41.0 +14.3 21 +42 +42 опасность
перегрева
998.2 972.8
08 21.02 ЮЗ 5 н/о н/о +41.4 +12.3 18 +41 +41 опасность
перегрева
997.2 971.8
09 21.02 З 5 н/о н/о +40.2 +12.9 20 +40 +40 очень
жарко
997.3 971.9
11 21.02 Ю 1 н/о н/о +35.8 +14.4 28 +37 +37 душно 998.5 973.1
12 21.02 З 3 н/о н/о +36.2 +15.3 29 +38 +38 очень
душно
999.8 974.3
14 21.02 Ю 2 н/о н/о +33.7 +10.3 24 +33 +33 жарко 1000.4 974.9 +42.4
15 21.02 Ю 3 н/о н/о +33.0 +8.5 22 +32 +32 жарко 999.9 974.4
17 21.02 Ю 2 н/о н/о +30.7 +9.0 26 +30 +30 жарко 999.6 974.1
18 21.02 Ю 3 н/о н/о +28.7 +9.4 30 +29 +29 жарко 999.2 973.7
20 21.02 ЮЗ 1 н/о н/о +26.4 +11.3 39 +28 +28 жарко 999.8 974.3
21 21.02 ЮЗ 2 н/о н/о +25.7 +11.8 42 +27 +27 жарко 1000.5 975.0
23 21.02 В 3 н/о н/о +32.5 +13.2 31 +33 +33 жарко 1001.6 976.1
00 22.02 В 4 н/о н/о +34.5 +14.4 30 +36 +36 душно 1001.1 975.6
02 22.02 ЮЗ 2 н/о н/о +38.3 +14.2 24 +39 +39 очень
душно
1000.4 974.9 +25.6
03 22.02 З 2 н/о н/о +39.4 +10.7 18 +38 +38 очень
жарко
999.8 974.3
05 22.02 Ю 7 н/о н/о +40.4 +13.8 21 +41 +41 опасность
перегрева
998.1 972.7
06 22.02 Ю 6 н/о н/о +41.3 +11.3 17 +40 +40 очень
жарко
997.5 972.1
08 22.02 ЮЗ 8 н/о н/о +40.9 +7.1 13 +38 +38 очень
жарко
996.9 971.5
09 22.02 Ю 6 н/о н/о +39.2 +6.8 14 +37 +37 очень
жарко
997.5 972.1
11 22.02 Ю 4 н/о н/о +34.7 +7.7 19 +33 +33 жарко 999.6 974.1
12 22.02 Ю 3 н/о н/о +32.9 +9.0 23 +32 +32 жарко 1000.3 974.8
14 22.02 ЮЗ 3 н/о н/о +29.1 +10.7 32 +29 +29 жарко 1000.1 974.6 +42.5
15 22.02 ЮВ 3 н/о н/о +30.0 +12.0 33 +31 +31 жарко 1000.4 974.9
17 22.02 В 4 н/о н/о +29.3 +24.8 77 +42 +42 опасность
перегрева
1000.2 974.7
18 22.02 СВ 4 н/о н/о +29.1 +25.3 80 +42 +42 опасность
перегрева
1000.1 974.6
20 22.02 СВ 4 н/о н/о +28.3 +24.5 80 +40 +40 очень
душно
1001.1 975.6
21 22.02 СВ 4 н/о н/о +27.9 +23.7 78 +38 +38 очень
душно
1001.7 976.2
23 22.02 СВ 5 н/о н/о +30.3 +22.5 63 +40 +40 очень
душно
1002.8 977.2
00 23.02 СВ 4 н/о н/о +32.5 +22.3 55 +42 +42 опасность
перегрева
1002.7 977.1
02 23.02 СВ 3 н/о н/о +36.5 +19.4 37 +42 +42 опасность
перегрева
1001.7 976.2 +27.9
03 23.02 В 3 н/о н/о +38.2 +16.5 28 +40 +40 очень
душно
1000.8 975.3
05 23.02 Ю 5 н/о н/о +39.4 +15.1 24 +40 +40 очень
душно
999.4 973.9
06 23.02 Ю 6 н/о н/о +39.9 +15.5 24 +41 +41 опасность
перегрева
999.0 973.5
08 23.02 Ю 5 н/о н/о +39.8 +14.8 23 +41 +41 опасность
перегрева
998.0 972.6
09 23.02 ЮВ 5 н/о н/о +38.9 +14.0 23 +39 +39 очень
жарко
999.3 973.8
11 23.02 СВ 9 н/о н/о +32.9 +21.1 50 +40 +40 очень
душно
1001.9 976.4
12 23.02 СВ 6 н/о н/о +31.3 +20.6 53 +38 +38 очень
душно
1002.7 977.1
14 23.02 СВ 6 н/о н/о +29.7 +21.4 61 +38 +38 очень
душно
1003.4 977.8 +41.6
15 23.02 СВ 5 н/о н/о +29.1 +22.1 66 +38 +38 очень
душно
1003.1 977.5
17 23.02 С 6 н/о н/о +28.0 +22.5 72 +37 +37 очень
душно
1003.0 977.4
18 23.02 С 5 н/о н/о +27.7 +22.2 72 +36 +36 очень
душно
1003.0 977.4
20 23.02 С 4 н/о н/о +27.1 +22.3 75 +35 +35 очень
душно
1003.5 977.9
21 23.02 СВ 4 н/о н/о +26.9 +22.1 75 +35 +35 очень
душно
1004.3 978.7
23 23.02 С 7 н/о н/о +29.7 +22.2 64 +39 +39 очень
душно
1005.7 980.1
00 24.02 С 4 н/о н/о +31.5 +22.2 58 +41 +41 опасность
перегрева
1005.6 980.0
02 24.02 С 3 н/о н/о +35.3 +21.2 44 +43 +43 опасность
перегрева
1005.2 979.6 +27.0
03 24.02 С 3 н/о н/о +37.6 +19.0 34 +42 +42 опасность
перегрева
1004.4 978.8
05 24.02 В 3 н/о н/о +39.4 +15.7 25 +41 +41 опасность
перегрева
1002.1 976.6
06 24.02 ЮВ 4 н/о н/о +40.3 +15.2 23 +41 +41 опасность
перегрева
1001.2 975.7
08 24.02 Ю 4 н/о н/о +40.0 +14.2 22 +41 +41 опасность
перегрева
1000.7 975.2
09 24.02 Ю 4 н/о н/о +38.7 +13.8 23 +39 +39 душно 1001.4 975.9
11 24.02 С 5 н/о н/о +35.6 +18.7 37 +40 +40 очень
душно
1003.9 978.3
12 24.02 С 6 н/о н/о +32.8 +18.6 43 +38 +38 очень
душно
1004.6 979.0
14 24.02 Ю 3 н/о н/о +31.1 +19.4 50 +37 +37 очень
душно
1006.3 980.7 +41.4
15 24.02 С 5 н/о н/о +23.1 +22.9 99 +32 +32 очень
душно
1008.0 982.3
17 24.02 СВ 4 н/о в посл. час дождь {туман} н/о +24.0 +23.0 94 +32 +32 очень
душно
1004.9 979.3
18 24.02 СВ 4 н/о н/о +24.8 +23.0 90 +33 +33 очень
душно
1004.8 979.2
20 24.02 С 3 н/о н/о +25.0 +23.4 91 +34 +34 очень
душно
1005.9 980.3
21 24.02 С 2 н/о н/о +25.2 +23.6 91 +34 +34 очень
душно
1006.2 980.6
23 24.02 С 1 н/о н/о +28.9 +22.2 67 +38 +38 очень
душно
1006.6 980.9
00 25.02 Ю 2 н/о н/о +30.7 +22.0 60 +39 +39 очень
душно
1006.6 980.9
02 25.02 Ю 4 н/о н/о +34.4 +22.5 50 +44 +44 опасность
перегрева
1005.6 980.0 +23.0
03 25.02 Ю 4 н/о н/о +35.5 +21.0 43 +43 +43 опасность
перегрева
1004.9 979.3
05 25.02 ЮВ 5 н/о н/о +37.6 +19.5 35 +43 +43 опасность
перегрева
1003.3 977.7
06 25.02 Ю 5 н/о н/о +37.9 +17.3 30 +41 +41 опасность
перегрева
1002.3 976.8
08 25.02 ЮВ 4 н/о н/о +37.6 +16.5 29 +40 +40 очень
душно
1001.5 976.0
09 25.02 Ю 5 н/о н/о +36.7 +13.5 25 +37 +37 очень
жарко
1002.3 976.8
11 25.02 Ю 5 н/о н/о +33.3 +13.9 31 +34 +34 очень
жарко
1004.0 978.4
12 25.02 Ю 5 н/о н/о +32.4 +13.1 31 +33 +33 жарко 1005.4 979.8
14 25.02 В 3 н/о н/о +30.8 +10.7 29 +31 +31 жарко 1006.1 980.5 +39.1
15 25.02 В 4 н/о н/о +28.9 +11.0 33 +29 +29 жарко 1005.6 980.0
17 25.02 С 2 н/о н/о +27.5 +11.1 36 +28 +28 жарко 1006.1 980.5
18 25.02 Ю 3 н/о н/о +25.3 +16.4 58 +29 +29 душно 1005.7 980.1
20 25.02 Ю 3 н/о н/о +25.0 +12.9 47 +27 +27 жарко 1006.7 981.0
21 25.02 Ю 4 н/о н/о +25.4 +12.3 44 +27 +27 жарко 1007.4 981.7
23 25.02 ЮВ 6 н/о н/о +29.5 +11.1 32 +30 +30 жарко 1008.1 982.4

 

Местоположение метеостанции Camooweal Township (Квинсленд, Австралия): широта -19.91 долгота 138.11 высота над уровнем моря 231 м.

В архиве по умолчанию представлена погода в Camooweal Township за последнюю неделю. Архивные данные за месяц целиком и за предыдущие месяцы, начиная с января 2011 года, Вы можете получить, выбрав интересующий диапазон дат из раскрывающегося списка и нажав кнопку "Ввод!".

Внимание! Время в таблицах - всемирное. Для получения местного времени необходимо прибавить поправку, которая в Camooweal Township равна 10 ч.

Смотрите также архив погоды в соседних городах и на ближайших метеорологических станциях:

Погода в Century Mine (Квинсленд, Австралия) (143 км)
Погода в New May Downs (Квинсленд, Австралия) (149 км)
Погода в Mount Isa (Квинсленд, Австралия) (167 км)
Погода в Lake Julius Aws (Квинсленд, Австралия) (171 км)
Погода в Cloncurry Composite (Квинсленд, Австралия) (263 км)
Погода в Phosphate Hill Airport (Квинсленд, Австралия) (282 км)
Погода в Burketown Airport (Квинсленд, Австралия) (283 км)
Погода в Trepell Airport (Квинсленд, Австралия) (358 км)
Погода в Mornington Island (Квинсленд, Австралия) (378 км)
Погода в Julia Creek Airport (Квинсленд, Австралия) (387 км)

Пояснения к столбцам:

Ветер - указаны скорость ветра в м/с - средняя за 10 мин, порывы в срок и между сроками (в фигурных скобках) и направление, откуда дует ветер: С - северный, СВ - северо-восточный, В - восточный, ЮВ - юго-восточный, Ю - южный, ЮЗ - юго-западный, З - западный, СЗ - северо-западный.
Видимость - горизонтальная дальность видимости в метрах или километрах. При видимости от 1 до 10 км при отсутствии осадков обычно наблюдается дымка, при ухудшении видимости до 1 км и менее - туман. В сухую погоду видимость может ухудшаться дымом, пылью или мглою.
Явления - указаны атмосферные явления, наблюдавшиеся в срок или в последний час перед сроком; фигурными скобками обозначены явления, наблюдавшиеся между сроками (за 1-3 часа до срока); квадратными скобками обозначены град или гололедные отложения с указанием их диаметра в мм.
Облачность - указаны через наклонную черту общая и нижняя облачность в баллах и высота нижней границы облаков в метрах; квадратными скобками обозначены формы облаков: Ci - перистые, Cs - перисто-слоистые, Cc - перисто-кучевые, Ac - высококучевые, As - высокослоистые, Sc - слоисто-кучевые, Ns - слоисто-дождевые, Cu - кучевые, Cb - кучево-дождевые. Подробнее классификацию облаков см. в Атласе облаков (PDF).
T - Температура воздуха - температура, измеренная на высоте 2 м над землей.
Td - Температура точки росы - температура, при понижении до которой содержащийся в воздухе водяной пар достигнет насыщения.
f - Относительная влажность воздуха - влажноcть воздуха, измеренная на высоте 2 м над землей.
Te - Эффективная температура - температура, которую ощущает одетый по сезону человек в тени. Характеристика душности погоды. При расчете учитывается влияние влажности воздуха и скорости ветра на теплоощущения человека.
Tes - Эффективная температура на солнце - температура, которую ощущает человек, с поправкой на солнечный нагрев. Характеристика знойности погоды. Зависит от высоты солнца над горизонтом, облачности и скорости ветра. Ночью, в пасмурную погоду, а также при ветре 12 м/с и более поправка равна нулю.
P - Атмосферное давление - приведенное к уровню моря атмосферное давление.
Po - Атмосферное давление - измеренное на уровне метеостанции атмосферное давление.
Tmin - Минимальная температура - минимум температуры воздуха на высоте 2 м над землей.
Tmax - Максимальная температура - максимум температуры воздуха на высоте 2 м над землей.
R - Количество осадков - Количество выпавших осадков за период времени, мм. При наведении курсора мыши на число - период времени, за который выпало указанное количество осадков.
R24 - Количество осадков - Количество выпавших осадков за 24 часа, мм.
S - Снежный покров - Высота снежного покрова, см. При наведении курсора мыши на число - состояние снежного покрова и степень покрытия местности в баллах.